MEASAT-3

Last updated on Tue Jul 06 2021 15:29:02 GMT+0000 (Coordinated Universal Time)

1 29648U 06056A 21186.97645309 -.00000183 00000-0 00000-0 0 9990 2 29648 0.0944 119.5102 0006979 304.3455 299.4277 1.00201059 32353
UTC large
Height (km)
Speed (km/s)
/
Latitude / Longitude
Inclination (degrees)
Orbital Period (minutes)
Azimuth
Elevation
Range (km)
Doppler Factor

Next 0 passes for location: London (51.5072 / 0.1276)

Sorry there are no passes over London.